Flight Track Log - Related Links

Times and Time Zones

All times are in EDT time to prevent confusion due to time zone crossing. See the OPT732 flight status page for this flight to view local times or setup timezone preferences in your user account.

Time Position Orientation Groundspeed Altitude Reporting Facility
EDT Latitude Longitude Course Direction KTS MPH feet Rate Location/Type
10:40PM 40.8667 -74.0500 346° North 176 203 1,200  Level New York TRACON
10:41PM 40.9167 -74.0667 346° North 211 243 2,000 1,200 Climbing New York TRACON
10:42PM 40.9167 -74.1333 270° West 188 216 3,600 1,850 Climbing New York TRACON
10:43PM 40.9167 -74.2167 270° West 227 261 5,700 2,550 Climbing New York TRACON
10:44PM 40.9167 -74.3167 270° West 270 311 8,700 2,857 Climbing New York TRACON
10:45PM 40.9167 -74.4333 270° West 304 350 11,700 2,700 Climbing New York TRACON
10:46PM 40.8833 -74.5167 242° Southwest 310 357 14,100 1,688 Climbing New York TRACON
10:48PM 40.7181 -74.6728 216° Southwest 352 405 17,100 1,091 Climbing New York Center
10:49PM 40.6253 -74.7658 217° Southwest 383 441 17,700 458 Climbing New York Center
10:50PM 40.5456 -74.8458 217° Southwest 392 451 18,000 151 Climbing New York Center
10:51PM 40.4439 -74.9489 218° Southwest 414 476 18,000  Level New York Center
10:52PM 40.3608 -75.0556 224° Southwest 414 476 18,000  Level New York Center
10:53PM 40.2944 -75.1631 231° Southwest 421 484 18,000  Level New York Center
10:54PM 40.2122 -75.2936 231° Southwest 428 493 18,000  Level New York Center
10:55PM 40.1456 -75.4008 231° Southwest 427 491 18,000  Level New York Center
10:56PM 40.0656 -75.5256 230° Southwest 422 486 18,000  Level New York Center
10:57PM 40.0008 -75.6297 231° Southwest 422 486 18,000  Level New York Center
10:58PM 39.9208 -75.7511 229° Southwest 413 475 18,000 -295 Level New York Center
10:59PM 39.8561 -75.8494 229° Southwest 413 475 17,400 -1,768 Descending New York Center
11:01PM 39.7000 -76.1000 231° Southwest 366 421 12,400 -1,810 Descending Potomac TRACON
11:02PM 39.6500 -76.2000 237° Southwest 349 402 11,700 -1,250 Descending Potomac TRACON
11:03PM 39.6000 -76.3000 237° Southwest 329 379 9,900 -1,500 Descending Potomac TRACON
11:04PM 39.5667 -76.4000 247° West 296 341 8,700 -1,368 Descending Potomac TRACON
11:05PM 39.5500 -76.4833 255° West 273 314 7,300 -1,684 Descending Potomac TRACON
11:06PM 39.5167 -76.5833 247° West 271 312 5,500 -1,500 Descending Potomac TRACON
11:07PM 39.4833 -76.6500 237° Southwest 261 300 4,300 -714 Descending Potomac TRACON
11:08PM 39.4167 -76.5833 142° Southeast 239 275 4,000 -550 Descending Potomac TRACON
11:09PM 39.3667 -76.5500 153° Southeast 257 296 3,200 -526 Descending Potomac TRACON
11:10PM 39.3000 -76.5333 169° South 255 293 3,000 -200 Descending Potomac TRACON

Login

Don't have an account? Register now (free) for customized features, flight alerts, and more!